Location: Gerlach
(40.6516°N, 119.3568°W)
Time: 02:02:09
(UTC-08:00)

deb Explorer IX - All Passes

Search period start: 31 January 2023 00:00
Search period end: 10 February 2023 00:00
Orbit: 534 x 1049 km, 38.8° (Epoch: 30 January)

Date Brightness Start Highest point End Pass type
(mag) Time Alt. Az. Time Alt. Az. Time Alt. Az.
31 Jan - 03:41:40 10° S 03:44:09 15° SSE 03:46:33 10° ESE visible
31 Jan - 05:25:44 10° WSW 05:29:39 45° SSE 05:33:31 10° E visible
31 Jan - 07:11:28 10° W 07:15:28 69° S 07:19:38 10° E daylight
31 Jan - 08:57:25 10° W 09:01:18 41° SSW 09:05:32 10° SE daylight
31 Jan - 10:44:30 10° WSW 10:46:54 14° SSW 10:49:25 10° S daylight
01 Feb - 03:09:24 10° S 03:11:42 14° SSE 03:13:54 10° ESE visible
01 Feb - 04:53:15 10° SW 04:57:12 42° SSE 05:01:01 10° E visible
01 Feb - 06:39:00 10° W 06:43:01 69° S 06:47:05 10° E visible
01 Feb - 08:24:58 10° W 08:28:50 43° SSW 08:32:58 10° SE daylight
01 Feb - 10:11:54 10° WSW 10:14:25 15° SSW 10:17:03 10° S daylight
02 Feb - 02:37:08 10° S 02:39:13 13° SSE 02:41:14 10° ESE night (unlit)
02 Feb - 04:20:44 10° SW 04:24:44 40° SSE 04:28:32 10° E visible
02 Feb - 06:06:29 10° W 06:10:32 68° S 06:14:33 10° E visible
02 Feb - 07:52:30 10° W 07:56:21 46° SSW 08:00:24 10° ESE daylight
02 Feb - 09:39:19 10° WSW 09:41:55 16° SSW 09:44:41 10° S daylight
03 Feb - 02:04:52 10° S 02:06:43 12° SSE 02:08:30 10° SE night (unlit)
03 Feb - 03:48:10 10° SW 03:52:15 38° SSE 03:56:02 10° E visible
03 Feb - 05:33:56 10° W 05:38:02 68° S 05:42:02 10° E visible
03 Feb - 07:20:00 10° W 07:23:52 48° SSW 07:27:52 10° ESE daylight
03 Feb - 09:06:41 10° WSW 09:09:26 17° SSW 09:12:17 10° SSE daylight
04 Feb - 01:32:38 10° SSE 01:34:11 11° SSE 01:35:41 10° SE night (unlit)
04 Feb - 03:15:33 10° SW 03:19:44 36° SSE 03:23:33 10° E visible
04 Feb - 05:01:19 10° WSW 05:05:32 67° S 05:09:31 10° E visible
04 Feb - 06:47:26 10° W 06:51:22 51° SSW 06:55:19 10° ESE daylight
04 Feb - 08:34:04 10° WSW 08:36:56 19° SSW 08:39:53 10° SSE daylight
05 Feb - 01:00:28 10° SSE 01:01:38 11° SSE 01:02:44 10° SE night (unlit)
05 Feb - 02:42:54 10° SW 02:47:11 34° SSE 02:51:03 10° E night (unlit)
05 Feb - 04:28:40 10° WSW 04:33:00 66° S 04:37:01 10° E visible
05 Feb - 06:14:50 10° W 06:18:52 54° SSW 06:22:47 10° ESE visible
05 Feb - 08:01:25 10° WSW 08:04:25 20° SSW 08:07:29 10° SSE daylight
06 Feb - 00:28:43 10° SSE 00:29:02 10° SE 00:29:20 10° SE night (unlit)
06 Feb - 02:10:13 10° SW 02:14:37 33° SSE 02:18:33 10° E night (unlit)
06 Feb - 03:55:57 10° WSW 04:00:26 65° S 04:04:31 10° E visible
06 Feb - 05:42:12 10° W 05:46:19 57° SSW 05:50:16 10° ESE visible
06 Feb - 07:28:44 10° W 07:31:54 22° SSW 07:35:04 10° SSE daylight
07 Feb - 01:37:30 10° SW 01:42:00 31° SSE 01:46:00 10° E night (unlit)
07 Feb - 03:23:12 10° WSW 03:27:51 64° S 03:32:00 10° E visible
07 Feb - 05:09:31 10° W 05:13:46 60° S 05:17:44 10° ESE visible
07 Feb - 06:56:02 10° W 06:59:22 24° SSW 07:02:39 10° SSE daylight
08 Feb - 01:04:45 10° SW 01:09:22 30° SSE 01:13:27 10° E night (unlit)
08 Feb - 02:50:23 10° WSW 02:55:14 62° S 02:59:30 10° E visible
08 Feb - 04:36:46 10° W 04:41:10 63° S 04:45:13 10° ESE visible
08 Feb - 06:23:18 10° W 06:26:49 27° SSW 06:30:13 10° SSE visible
09 Feb - 00:31:58 10° SSW 00:36:41 29° SSE 00:40:52 10° E night (unlit)
09 Feb - 02:17:32 10° WSW 02:22:34 61° S 02:26:58 10° E night (unlit)
09 Feb - 04:03:58 10° W 04:08:34 66° S 04:12:41 10° ESE visible
09 Feb - 05:50:31 10° W 05:54:14 30° SSW 05:57:46 10° SE visible
